SL-14 DEB, 45298

Orbit data source: Space-Track

SL-14 DEB, 45298 is space debris in LEO originally from a launch on Thu, 15 Aug 1991 UTC launched from the Plesetsk Missile And Space Complex (PKMTR). Debris objects in space refer to the collection of defunct objects orbiting the Earth. Examples of debris include non-operational satellites, rocket bodies, and fragments generated from explosions, collisions, or faulty payload assembly.

Loading next visibility...
Identifier
45298, 1991-056AL
Orbit
LEO
Country
Flag of CISCIS
Related business
Manufacturer
Unknown
Mission
Spacecraft
Bus & Motor
Unknown
Mass
Unknown
Launch date (UTC)
1991-08-15 (34 years ago)
Launch vehicle
Unknown
Launch site
Plesetsk Missile And Space Complex (PKMTR)
Object type
Payload
Rocket body
Debris
Shape & HBR
Unknown shape, 0.3 m
Radar Cross Section
Medium (>0.1 m² and <1 m²)

Expand to show TLE details & history
Last TLE update: 8 hours ago

TLE from 8 hours ago
0 SL-14 DEB
1 45298U 91056AL  25353.21555239  .00002857  00000-0  32370-2 0  9998
2 45298  82.5961 172.5671 0163485 181.9931 178.0588 13.64491332287379
Epoch: 2025-12-19T05:10Z
TLE epoch observation values (Epoch: 2025-12-19T05:10:23.726Z)
Latitude
-0.00006°
Longitude
6.90833°
Altitude
1,143.186 km
Speed
7.222 km/s
True Right ascension
11h 30m 16s
True Declination
0° 00' 00"
Sunlit
Object was in daylight at epoch
Visualization orbit readout
Latitude
Unknown
Longitude
Unknown
Altitude
Unknown
Speed
Unknown
Apparent Right ascension
Unknown
Apparent Declination
Unknown
Sunlit
N/A
Visualization observer readout
Local Sidereal Time
12:00:01
Azimuth
Unknown
Elevation
Unknown
Doppler factor
Unknown
Orbital elements
Apogee altitude
1,137.483 km
Perigee altitude
895.697 km
Semi-major axis
7,394.727 km
Eccentricity
0.01635
Inclination
82.5961°
RAAN
172.5671°
Arg. of periapsis
181.9931°
True anomaly
178.12099°
Mean anomaly
178.0588°
Eccentric anomaly
178.09002°
Mean motion
3.41319 °/min
Orbital period
105.47 mins
BSTAR
0.003237
Loading maneuver chart data...
Computing Atmospheric mass density...
Loading historical data...
Loading historical data...
Loading historical data...
Loading historical data...
Loading historical data...
Loading historical data...
Loading historical data...

Documentation

Showing up to 5 results
|